N120MG KGRB-KSUE

Flight info

Callsign N120MG
Flight time 0h 19m
Altitude 2500
Route DIRECT
Aircraft C172/L-V/N

Departure

Time 2026-04-20 18:51
Airport Austin Straubel International Airport (KGRB)

Arrival

Time 2026-04-20 19:10
Airport Door County Cherryland Airport (KSUE)
Time Latitude Longitude Altitude Speed Heading
2026-04-20 18:34 44.49246 -88.11815 686 ft 0 kts 329°
2026-04-20 18:35 44.49247 -88.11815 686 ft 0 kts 328°
2026-04-20 18:36 44.49247 -88.11816 686 ft 0 kts 318°
2026-04-20 18:36 44.49263 -88.11844 682 ft 0 kts 305°
2026-04-20 18:45 44.49280 -88.11803 686 ft 15 kts 98°
2026-04-20 18:45 44.49258 -88.11667 685 ft 15 kts 62°
2026-04-20 18:46 44.49318 -88.11512 681 ft 24 kts 66°
2026-04-20 18:46 44.49370 -88.11398 680 ft 7 kts 62°
2026-04-20 18:46 44.49373 -88.11389 680 ft 0 kts 60°
2026-04-20 18:46 44.49376 -88.11383 680 ft 0 kts 62°
2026-04-20 18:47 44.49379 -88.11371 680 ft 9 kts 72°
2026-04-20 18:47 44.49381 -88.11359 681 ft 0 kts 90°
2026-04-20 18:48 44.49381 -88.11355 681 ft 0 kts 94°
2026-04-20 18:48 44.49380 -88.11353 681 ft 3 kts 97°
2026-04-20 18:48 44.49377 -88.11338 681 ft 0 kts 120°
2026-04-20 18:48 44.49376 -88.11335 681 ft 0 kts 120°
2026-04-20 18:49 44.49376 -88.11334 681 ft 0 kts 125°
2026-04-20 18:49 44.49366 -88.11320 681 ft 0 kts 150°
2026-04-20 18:50 44.49346 -88.11307 681 ft 18 kts 155°
2026-04-20 18:50 44.49202 -88.11492 684 ft 52 kts 237°
2026-04-20 18:50 44.49010 -88.12094 795 ft 77 kts 262°
2026-04-20 18:51 44.49347 -88.12695 838 ft 104 kts 334°
2026-04-20 18:51 44.50074 -88.12851 1081 ft 107 kts
2026-04-20 18:51 44.50556 -88.12144 1272 ft 101 kts 94°
2026-04-20 18:51 44.50674 -88.11198 1526 ft 106 kts 69°
2026-04-20 18:52 44.51044 -88.10274 1762 ft 115 kts 73°
2026-04-20 18:52 44.51239 -88.09181 1888 ft 124 kts 67°
2026-04-20 18:52 44.51692 -88.08180 2130 ft 119 kts 67°
2026-04-20 18:52 44.51981 -88.07126 2340 ft 118 kts 69°
2026-04-20 18:53 44.52392 -88.06077 2500 ft 124 kts 65°
2026-04-20 18:53 44.52806 -88.04995 2648 ft 133 kts 66°
2026-04-20 18:53 44.53250 -88.03790 2641 ft 142 kts 66°
2026-04-20 18:53 44.53698 -88.02568 2658 ft 144 kts 66°
2026-04-20 18:54 44.54152 -88.01317 2653 ft 141 kts 66°
2026-04-20 18:54 44.54594 -88.00098 2646 ft 140 kts 66°
2026-04-20 18:54 44.55033 -87.98900 2649 ft 140 kts 67°
2026-04-20 18:54 44.55485 -87.97684 2646 ft 141 kts 66°
2026-04-20 18:55 44.55942 -87.96466 2652 ft 141 kts 66°
2026-04-20 18:55 44.56399 -87.95249 2653 ft 141 kts 65°
2026-04-20 18:55 44.56858 -87.94042 2653 ft 141 kts 65°
2026-04-20 18:55 44.57320 -87.92831 2653 ft 140 kts 66°
2026-04-20 18:56 44.57782 -87.91632 2654 ft 140 kts 65°
2026-04-20 18:56 44.58248 -87.90426 2658 ft 138 kts 65°
2026-04-20 18:56 44.58687 -87.89240 2659 ft 135 kts 66°
2026-04-20 18:56 44.59134 -87.88052 2653 ft 138 kts 67°
2026-04-20 18:57 44.59582 -87.86860 2659 ft 138 kts 65°
2026-04-20 18:57 44.60055 -87.85680 2671 ft 139 kts 64°
2026-04-20 18:57 44.60527 -87.84507 2647 ft 141 kts 65°
2026-04-20 18:57 44.61010 -87.83288 2579 ft 147 kts 65°
2026-04-20 18:58 44.61479 -87.82088 2930 ft 125 kts 66°
2026-04-20 18:58 44.61927 -87.80878 2474 ft 134 kts 67°
2026-04-20 18:58 44.62367 -87.79922 2401 ft 109 kts 59°
2026-04-20 18:58 44.62842 -87.79041 2487 ft 124 kts 55°
2026-04-20 18:59 44.63398 -87.78070 2508 ft 134 kts 54°
2026-04-20 18:59 44.64030 -87.77005 2501 ft 145 kts 53°
2026-04-20 18:59 44.64676 -87.75912 2504 ft 145 kts 54°
2026-04-20 18:59 44.65313 -87.74832 2511 ft 145 kts 53°
2026-04-20 19:00 44.65942 -87.73759 2514 ft 143 kts 54°
2026-04-20 19:00 44.66581 -87.72666 2503 ft 144 kts 54°
2026-04-20 19:00 44.67219 -87.71580 2497 ft 143 kts 53°
2026-04-20 19:00 44.67858 -87.70496 2501 ft 143 kts 54°
2026-04-20 19:01 44.68490 -87.69422 2496 ft 144 kts 53°
2026-04-20 19:01 44.69133 -87.68329 2510 ft 144 kts 54°
2026-04-20 19:01 44.69766 -87.67251 2518 ft 142 kts 54°
2026-04-20 19:01 44.70404 -87.66166 2516 ft 144 kts 55°
2026-04-20 19:02 44.71038 -87.65077 2517 ft 142 kts 54°
2026-04-20 19:02 44.71671 -87.63997 2520 ft 144 kts 53°
2026-04-20 19:02 44.72304 -87.62932 2491 ft 142 kts 55°
2026-04-20 19:02 44.72941 -87.61863 2495 ft 141 kts 54°
2026-04-20 19:03 44.73576 -87.60801 2510 ft 141 kts 54°
2026-04-20 19:03 44.74236 -87.59740 2444 ft 147 kts 52°
2026-04-20 19:03 44.74942 -87.58715 2479 ft 144 kts 51°
2026-04-20 19:03 44.75630 -87.57684 2468 ft 142 kts 53°
2026-04-20 19:04 44.76238 -87.56612 2488 ft 143 kts 58°
2026-04-20 19:04 44.76849 -87.55510 2481 ft 143 kts 57°
2026-04-20 19:04 44.77459 -87.54430 2477 ft 142 kts 56°
2026-04-20 19:04 44.78079 -87.53351 2482 ft 143 kts 55°
2026-04-20 19:05 44.78712 -87.52257 2476 ft 144 kts 57°
2026-04-20 19:05 44.79346 -87.51160 2498 ft 144 kts 57°
2026-04-20 19:05 44.79730 -87.49937 2567 ft 132 kts 90°
2026-04-20 19:05 44.79666 -87.48802 2345 ft 110 kts 107°
2026-04-20 19:06 44.79581 -87.47777 2334 ft 113 kts 108°
2026-04-20 19:06 44.79588 -87.46672 2575 ft 115 kts 91°
2026-04-20 19:06 44.79731 -87.45392 2404 ft 138 kts 84°
2026-04-20 19:06 44.79985 -87.44108 2475 ft 135 kts 81°
2026-04-20 19:07 44.80244 -87.42827 2495 ft 136 kts 81°
2026-04-20 19:07 44.80528 -87.41521 2483 ft 137 kts 75°
2026-04-20 19:07 44.81012 -87.40430 2340 ft 134 kts 51°
2026-04-20 19:07 44.81769 -87.39661 2171 ft 132 kts 37°
2026-04-20 19:08 44.82452 -87.38907 2219 ft 122 kts 40°
2026-04-20 19:08 44.84061 -87.38566 2165 ft 125 kts
2026-04-20 19:08 44.84916 -87.38539 2095 ft 122 kts
2026-04-20 19:09 44.85759 -87.38782 1995 ft 121 kts 334°
2026-04-20 19:09 44.86386 -87.39454 1893 ft 115 kts 297°
2026-04-20 19:09 44.86647 -87.40492 1531 ft 114 kts 259°
2026-04-20 19:09 44.86386 -87.41472 1169 ft 102 kts 217°
2026-04-20 19:10 44.85904 -87.41772 1033 ft 63 kts 189°
2026-04-20 19:10 44.85503 -87.41899 858 ft 53 kts 191°
2026-04-20 19:10 44.85157 -87.42008 796 ft 55 kts 190°
2026-04-20 19:10 44.84813 -87.42119 720 ft 48 kts 189°